Weather History for Guthrie, OK

Change the Weather History Date:

Monday, November 19, 2012

  Actual Average Record
Temperature  
Mean Temperature 63 °F -  
Max Temperature 73 °F 62 °F 79 °F (1982)
Min Temperature 53 °F 38 °F 13 °F (1951)
Degree Days  
Heating Degree Days 2    
Growing Degree Days 13 (Base 50)    
Moisture  
Dew Point 47 °F    
Average Humidity 60    
Maximum Humidity 86    
Minimum Humidity 48    
Precipitation  
Precipitation 0.01 in - - ()
Sea Level Pressure  
Sea Level Pressure 30.11 in    
Wind  
Wind Speed 9 mph (SSW)    
Max Wind Speed 14 mph    
Max Gust Speed 21 mph    
Visibility 10 miles    
Events      
Averages and records for this station are not official NWS values.
T = Trace of Precipitation, MM = Missing Value Source: NWS Daily Summary

Daily Weather History Graph

Daily Weather History Graph

Search for Another Location

Airport:

Trip Planner

Search our weather history database for the weather conditions in past years. The results will help you decide how hot, cold, wet, or windy it might be!

Date:

Astronomy

Nov. 19, 2012 Rise Set
Actual Time 7:10 AM CST 5:19 PM CST
Civil Twilight 6:42 AM CST 5:47 PM CST
Nautical Twilight 6:11 AM CST 6:18 PM CST
Astronomical Twilight 5:41 AM CST 6:48 PM CST
Moon 12:18 PM CST (11/19) 11:42 PM CST (11/19)
Length of Visible Light 11h 04m
Length of Day
10h 09m
Waxing Crescent, 41% of the Moon is Illuminated
Nov 19
Waxing Crescent
Nov 20
First Quarter
Nov 28
Full
Dec 6
Last Quarter
Dec 13
New

Hourly Weather History & Observations

Time (CST) Temp. Dew Point Humidity Pressure Visibility Wind Dir Wind Speed Gust Speed Precip Events Conditions
12:53 AM 57.9 °F 39.9 °F 51% 30.12 in 10.0 mi South 9.2 mph - 0.01 in   Overcast
1:53 AM 57.9 °F 39.0 °F 49% 30.11 in 10.0 mi South 10.4 mph - N/A   Mostly Cloudy
2:53 AM 59.0 °F 39.0 °F 48% 30.10 in 10.0 mi South 12.7 mph - N/A   Clear
3:53 AM 57.9 °F 39.9 °F 51% 30.10 in 10.0 mi South 10.4 mph - N/A   Clear
4:53 AM 57.0 °F 41.0 °F 55% 30.08 in 10.0 mi South 11.5 mph 20.7 mph N/A   Clear
5:53 AM 57.0 °F 41.0 °F 55% 30.09 in 10.0 mi South 11.5 mph - N/A   Clear
6:53 AM 55.9 °F 41.0 °F 57% 30.10 in 10.0 mi South 11.5 mph - N/A   Clear
7:53 AM 55.9 °F 42.1 °F 60% 30.11 in 10.0 mi South 11.5 mph - N/A   Clear
8:53 AM 61.0 °F 44.1 °F 54% 30.13 in 10.0 mi SSW 9.2 mph - N/A   Clear
9:53 AM 64.9 °F 46.9 °F 52% 30.14 in 10.0 mi SSW 9.2 mph - N/A   Clear
10:53 AM 66.9 °F 48.0 °F 51% 30.12 in 10.0 mi SSW 13.8 mph - N/A   Clear
11:53 AM 70.0 °F 50.0 °F 49% 30.12 in 10.0 mi SSW 8.1 mph - N/A   Clear
12:53 PM 71.1 °F 51.1 °F 49% 30.10 in 10.0 mi West 9.2 mph - N/A   Clear
1:53 PM 71.1 °F 51.1 °F 49% 30.09 in 10.0 mi SW 6.9 mph - N/A   Clear
2:53 PM 73.0 °F 52.0 °F 48% 30.07 in 10.0 mi SW 8.1 mph - N/A   Clear
3:53 PM 73.0 °F 52.0 °F 48% 30.07 in 10.0 mi WSW 6.9 mph - N/A   Clear
4:53 PM 69.1 °F 52.0 °F 54% 30.09 in 10.0 mi WSW 3.5 mph - N/A   Clear
5:53 PM 64.0 °F 52.0 °F 65% 30.10 in 10.0 mi Calm Calm - N/A   Clear
6:53 PM 59.0 °F 51.1 °F 75% 30.12 in 10.0 mi Calm Calm - N/A   Clear
7:53 PM 57.9 °F 51.1 °F 78% 30.13 in 9.0 mi Calm Calm - N/A   Clear
8:53 PM 57.0 °F 50.0 °F 77% 30.14 in 9.0 mi Calm Calm - N/A   Clear
9:53 PM 53.1 °F 48.9 °F 86% 30.15 in 9.0 mi SE 4.6 mph - N/A   Clear
10:53 PM 55.9 °F 51.1 °F 84% 30.14 in 8.0 mi South 4.6 mph - N/A   Clear
11:53 PM 53.1 °F 48.9 °F 86% 30.14 in 7.0 mi Calm Calm - N/A   Clear